Weather in Krasnoarmeyskoe

Russia / Samara Oblast     52°43′00″N   50°01′59″E
temp.,
°C
wind,
m/s
gust,
m/s
humid.,
%
clouds,
%
prec.,
mm/h
press.,
hPa
HPBL,
m
7 march, sun
sun701:00−12ne2281100 0.0 101321
04:00−15n127879 0.0 101220
07:00−17w11800 0.0 101220
10:00−12wsw23907 0.0 1013103
13:00−9wsw469180 0.0 1013328
16:00−8wsw479290 0.1 1012390
19:00−10sw5129271 0.0 1011260
22:00−9ssw7159085 0.0 1009468
8 march, mon
mon801:00−5ssw101893100 0.8 1005831
04:00−4sw111892100 1.3 10021002
07:00−4sw111892100 0.7 1000933
10:00−2wsw81591100 1.0 10021275
13:00−2wsw7128253 0.3 10041378
16:00−3sw6118168 0.4 1005857
19:00−4ssw4989100 0.0 1005181
22:00−4ssw3597100 0.5 1005164
9 march, tue
tue901:00−4sw51093100 0.2 1004265
04:00−7wsw5119477 0.2 1005231
07:00−12w49928 0.0 1007144
10:00−11wnw479154 0.0 1009224
13:00−8wnw238934 0.0 1009222
16:00−8wnw359266 0.0 1010282
19:00−10wnw3495100 0.0 101081
22:00−13nw449681 0.0 101258
10 march, wed
wed1001:00−16nw349583 0.0 101233
04:00−17wnw349891 0.0 101365
07:00−16nw489695 0.1 1014245
10:00−15nw589393 0.2 1015387
13:00−15nw689197 0.0 1017477
16:00−15nw698999 0.0 1017547
19:00−20nw5109474 0.0 1019229
22:00−23nw479568 0.0 1021130
11 march, thu
thu1101:00−26nw46978 0.0 102287
04:00−27nw47986 0.0 102490
07:00−28wnw44980 0.0 102556
10:00−24wnw46950 0.0 1027185
13:00−19w47900 0.0 1027274
16:00−17wsw59915 0.0 1026360
19:00−18wsw5119483 0.0 1026219
22:00−17w489469 0.0 1027122